CST,Max TemperatureF,Mean TemperatureF,Min TemperatureF,Max Dew PointF,MeanDew PointF,Min DewpointF,Max Humidity, Mean Humidity, Min Humidity, Max Sea Level PressureIn, Mean Sea Level PressureIn, Min Sea Level PressureIn, Max VisibilityMiles, Mean VisibilityMiles, Min VisibilityMiles, Max Wind SpeedMPH, Mean Wind SpeedMPH, Max Gust SpeedMPH,PrecipitationIn, CloudCover, Events, WindDirDegrees
2012-12-1,48,42,35,44,38,34,97,88,76,30.07,29.83,29.72,5,3,1,12,6,21,0.00,6,,168
2012-12-2,40,35,30,39,35,30,100,97,93,30.01,29.92,29.82,4,1,0,10,3,16,0.00,6,Fog,142
2012-12-3,55,48,40,54,43,28,97,80,54,29.92,29.71,29.55,10,6,1,15,9,23,0.00,5,Rain,220
2012-12-4,45,34,24,28,18,12,66,55,45,30.42,30.17,29.92,10,10,10,18,10,31,0.00,0,,316
2012-12-5,40,30,19,24,16,11,73,56,45,30.41,30.19,29.88,10,10,10,16,6,25,0.00,1,,138
2012-12-6,45,38,29,37,30,22,81,64,53,29.99,29.86,29.78,10,10,10,16,10,21,0.00,3,Rain,260
2012-12-7,33,28,23,28,23,20,91,80,64,30.05,30.03,30.00,10,8,1,10,4,,0.00,4,Snow,350
2012-12-8,34,31,28,28,25,24,90,81,71,30.07,30.03,30.00,10,10,7,7,3,,0.00,4,,125
2012-12-9,33,28,23,31,29,20,96,92,71,30.02,29.90,29.82,10,2,0,16,6,21,0.45,8,Snow,79
2012-12-10,22,12,3,19,8,-1,87,80,74,29.95,29.91,29.86,10,9,4,20,8,18,0.00,4,Snow,287
2012-12-11,21,13,5,15,11,2,91,84,77,30.02,29.89,29.80,10,9,2,8,3,,0.00,5,Snow,242
2012-12-12,42,26,9,28,22,6,93,71,50,30.02,29.92,29.84,10,9,5,14,5,20,0.00,2,,167
2012-12-13,38,30,22,24,22,19,92,69,52,30.12,30.00,29.92,10,9,5,13,4,,0.00,0,Snow,194
2012-12-14,41,30,18,30,23,16,94,78,60,30.14,30.00,29.80,10,8,3,10,2,16,0.00,1,,132
2012-12-15,40,37,34,37,35,30,99,93,67,29.79,29.59,29.50,10,4,0,8,5,,0.38,8,Fog-Rain,115
2012-12-16,34,28,21,34,26,18,99,93,85,29.82,29.70,29.54,10,7,1,12,7,,0.01,8,Snow,308
2012-12-17,25,24,22,22,20,18,92,87,82,29.81,29.75,29.70,10,9,7,6,3,,0.00,8,,342
2012-12-18,28,26,23,26,23,21,93,86,79,29.83,29.71,29.65,10,6,3,7,2,,0.00,8,,103
2012-12-19,32,30,28,30,28,24,96,88,81,30.03,29.94,29.83,10,7,2,8,3,,0.02,7,Snow,217
2012-12-20,28,21,14,24,18,8,91,80,69,30.04,29.90,29.82,10,6,1,25,12,31,0.00,5,Snow,343
2012-12-21,22,16,10,10,7,5,82,72,58,30.26,30.20,30.04,10,10,10,15,9,25,0.00,0,,309
2012-12-22,28,18,9,16,11,5,90,74,57,30.19,30.04,29.95,10,10,7,10,2,,0.00,0,,71
2012-12-23,20,16,11,17,10,7,86,74,67,30.15,30.08,30.01,10,10,10,15,7,16,0.00,2,,17
2012-12-24,19,14,8,11,7,1,82,67,53,30.28,30.10,30.01,10,9,2,12,7,10,0.00,4,Snow,356
2012-12-25,13,8,2,3,0,-4,78,71,60,30.48,30.42,30.28,10,10,10,9,6,,0.00,0,,338
2012-12-26,19,12,5,5,3,-1,80,69,51,30.40,30.31,30.24,10,10,10,6,2,,0.00,2,,358
2012-12-27,21,14,6,18,10,1,90,82,70,30.26,30.21,30.15,10,8,2,6,1,,0.00,4,Snow,115
2012-12-28,25,19,12,18,17,10,93,85,74,30.14,30.06,30.00,10,7,2,7,1,,0.02,7,Snow,21
2012-12-29,20,14,6,17,11,2,93,82,73,30.18,30.08,30.02,10,9,2,10,4,,0.00,5,Snow,265
2012-12-30,23,12,1,17,8,-2,90,80,71,30.20,30.06,29.89,10,9,5,8,2,,0.00,0,,169
2012-12-31,20,11,1,14,4,-5,81,66,51,30.26,30.15,29.97,10,10,10,16,9,23,0.00,1,Snow,318